Location: U-46 Planetarium
(42.0300°N, 88.2740°W)
Time: 00:53:02
(UTC-06:00)

Daily predictions for brighter satellites

Satellite Brightness Start Highest point End
(mag) Time Altitude Azimuth Time Altitude Azimuth Time Altitude Azimuth
Cosmos 2333 Rocket 4.4 03:50:14 18° SE 03:50:14 18° SE 03:51:35 10° SE
COSMO-SKYMED 1 4.5 04:17:24 10° SE 04:21:02 27° ENE 04:21:11 27° ENE
Cosmos 2237 Rocket 2.9 04:36:10 44° S 04:36:10 44° S 04:39:58 10° SSE
USA 229 DEB 3.9 04:33:34 48° NNW 04:35:38 70° NE 04:42:51 10° SE
USA 229 3.9 04:33:38 48° NNW 04:35:44 69° NE 04:42:56 10° SE
SL-16 R/B 2.9 04:35:44 37° NNE 04:37:32 50° ENE 04:43:01 10° SE
Tsikada Rocket 4.1 04:33:26 10° N 04:39:51 77° E 04:46:10 10° SSE
Meteor 2-17 Rocket 4.2 04:42:28 59° SSW 04:43:42 85° W 04:49:47 10° N
Cosmos 2297 Rocket 2.0 04:46:57 85° SW 04:47:06 89° WNW 04:52:49 10° NNE
Aureole 2 Rocket 3.3 04:57:16 62° SE 04:57:16 62° SE 05:00:52 10° SSE
Cosmos 540 Rocket 3.5 04:58:34 64° SSW 04:58:34 64° SSW 05:03:03 10° S
Cosmos 2227 Rocket 2.6 05:00:39 47° NNW 05:00:39 47° NNW 05:05:07 10° NNE
OAO 2 Rocket 4.2 05:04:02 35° SSW 05:04:37 36° S 05:09:07 10° ESE
ISS -1.7 05:06:00 34° ENE 05:06:00 34° ENE 05:08:14 10° ESE
Cosmos 304 Rocket 4.0 05:05:04 36° N 05:06:58 68° ENE 05:11:44 10° SSE
Cosmos 1725 Rocket 3.9 05:01:05 10° SSW 05:07:14 63° W 05:13:30 10° N
Cosmos 1864 Rocket 4.3 05:01:41 10° SSW 05:07:43 63° W 05:13:50 10° N
SKYMED 2 3.5 05:04:38 10° SSE 05:08:58 87° E 05:09:50 57° N
Meteor 1-28 Rocket 4.0 05:05:24 10° SSE 05:09:03 50° ENE 05:10:37 29° NNE
Meteor 1-4 Rocket 3.0 05:08:38 10° S 05:12:17 64° E 05:16:02 10° NNE
CZ-4 R/B 4.0 05:16:53 10° NE 05:20:06 22° E 05:23:20 10° SSE
Cosmos 1538 Rocket 4.4 05:16:03 14° NNW 05:20:42 64° ENE 05:26:01 10° SSE
USA 234 3.7 05:16:41 10° ESE 05:23:03 55° NNE 05:27:24 21° NW
ERBS 3.6 05:23:54 30° NNE 05:24:33 33° NE 05:27:40 10° ESE
Cosmos 2082 4.2 05:27:37 37° WNW 05:27:56 37° WNW 05:33:15 10° N
Cosmos 2333 Rocket 3.9 05:32:19 15° SW 05:32:19 15° SW 05:33:51 10° SSW
NOSS 3-1 (C) 4.3 05:24:46 16° NNW 05:31:05 71° NE 05:39:23 10° SE
Ariane Rocket 3.0 05:29:03 10° NNE 05:34:11 84° ESE 05:39:17 10° SSW
SL-8 R/B 4.3 05:34:13 31° NW 05:36:02 46° NNE 05:40:40 10° E
Cosmos 2221 3.4 05:31:59 10° S 05:36:11 51° E 05:40:24 10° NNE
TELKOM 3 4.5 05:36:34 30° S 05:37:18 37° SE 05:39:26 10° ENE
Cosmos 1603 4.2 05:35:50 10° NNW 05:41:24 60° ENE 05:46:58 10° SE
ATLAS CENTAUR R/B 4.3 05:42:30 10° NNW 05:44:54 14° NNE 05:48:34 10° NE
Cosmos 1743 Rocket 4.2 05:46:44 31° W 05:47:00 31° W 05:50:53 10° SSW
Cosmos 1328 3.9 05:45:28 24° NNW 05:47:34 48° W 05:51:24 10° SSW
Cosmos 2058 2.8 05:49:00 10° N 05:53:08 80° W 05:57:16 10° S
Cosmos 1842 Rocket 4.1 05:53:08 10° SW 05:57:04 34° WNW 06:01:04 10° N
COSMO-SKYMED 1 3.5 05:53:24 10° SSW 05:57:07 27° W 05:58:24 24° WNW
Cosmos 2233 Rocket 4.3 05:52:05 10° SW 05:57:54 41° WNW 06:03:49 10° N
PAYLOAD A 3.9 05:56:35 10° NNE 06:01:42 88° WNW 06:06:34 10° SSW
CSL-04 DEB 4.5 05:57:48 10° N 06:02:11 69° WNW 06:06:29 10° SSW
Cosmos 292 Rocket 4.4 05:57:46 10° NNW 06:02:30 57° ENE 06:07:12 10° SSE
CZ-2C R/B 2.7 05:59:19 10° NNE 06:03:54 65° ESE 06:08:25 10° S
SeaSat 1 4.4 06:04:11 10° NNW 06:04:58 11° NNW 06:04:58 11° NNW
Cosmos 1805 Rocket 3.6 06:02:18 10° N 06:06:46 85° E 06:11:09 10° S
Cosmos 968 Rocket 3.9 06:03:40 10° SW 06:08:36 40° WNW 06:13:34 10° N
Cosmos 2227 4.1 06:03:54 10° SSW 06:09:31 80° WNW 06:15:10 10° NNE
CSL-04 Rocket 3.6 06:05:01 10° N 06:10:13 57° WNW 06:15:22 10° SSW
Cosmos 2151 3.5 06:06:49 10° NNW 06:10:41 36° W 06:14:34 10° SSW
Genesis I 3.2 06:08:32 13° NNW 06:12:02 87° ENE 06:15:57 10° SSE
Helios 1B rocket 3.2 06:08:05 10° SSE 06:12:05 54° ENE 06:16:06 10° N
SMAP 3.4 06:08:53 10° NNE 06:13:33 71° ESE 06:18:11 10° S
Cosmos 2034 Rocket 4.0 06:09:00 10° S 06:15:11 88° W 06:21:28 10° N
Cosmos 773 Rocket 4.1 06:11:44 10° NNW 06:16:58 62° WSW 06:22:10 10° S
Cosmos 1356 Rocket 3.3 06:14:20 10° NNW 06:18:26 82° W 06:22:34 10° S
Cosmos 1703 3.2 06:15:45 10° NNW 06:19:39 66° W 06:23:32 10° S
SL-16 R/B 3.3 06:17:40 13° NW 06:21:17 24° WSW 06:25:41 10° SSW
Nadezhda 4 Rocket 4.2 06:18:53 10° N 06:25:16 81° E 06:31:34 10° S
Tiangong 2 4.1 06:23:29 10° S 06:25:18 15° SSE 06:27:08 10° ESE
Cosmos 1340 Rocket 3.6 06:26:07 10° NNW 06:29:33 29° W 06:33:00 10° SSW
SPOT 3 Rocket 3.7 06:26:21 10° NNE 06:31:35 85° ESE 06:36:49 10° SSW
Cosmos 2297 Rocket 3.7 06:28:51 11° W 06:32:00 16° NW 06:35:23 10° N
Sich 1 3.0 06:29:45 10° NNW 06:34:08 75° W 06:38:26 10° S
Cosmos 1633 Rocket 3.0 06:30:34 10° N 06:34:57 84° W 06:39:17 10° S
Cosmos 2344 4.2 06:27:31 10° SSW 06:35:04 65° ESE 06:43:28 10° NE
SJ-12 4.1 06:31:10 10° N 06:35:07 48° WNW 06:39:01 10° SSW
Cosmos 1777 Rocket 4.4 06:34:02 10° SW 06:38:56 41° WNW 06:43:51 10° N
Cosmos 1271 Rocket 3.9 06:36:19 10° WSW 06:39:15 21° WNW 06:42:09 10° NNW
Cosmos 1328 Rocket 4.0 06:35:10 10° S 06:39:27 68° E 06:43:47 10° NNE
Cosmos 1184 Rocket 2.9 06:36:16 10° NNW 06:39:30 54° W 06:42:44 10° S
NOSS 3-1 (A) 4.2 06:32:48 10° NW 06:40:23 65° WSW 06:48:39 10° SSE
Cosmos 1092 Rocket 4.3 06:34:39 10° N 06:41:00 78° E 06:47:13 10° SSE
ISS -1.8 06:38:46 10° W 06:41:26 23° SW 06:44:05 10° S
IDEFIX/ARIANE 42P 2.7 06:39:25 10° N 06:44:33 54° WNW 06:49:39 10° SSW
Cosmos 1515 Rocket 4.4 06:40:16 10° S 06:44:34 57° E 06:48:56 10° NNE
Cosmos 2227 Rocket 4.1 06:44:34 10° NW 06:44:59 10° NW 06:45:25 10° NW
Cosmos 1484 Rocket 2.9 06:44:19 10° NNE 06:48:22 90° WNW 06:52:22 10° SSW
ATLAS 2AS CENTAUR R/B 3.7 06:41:27 10° NNW 06:49:25 56° NE 06:56:52 10° SE
CZ-3 Stage 3 4.4 06:46:16 10° WSW 06:52:01 34° S 07:14:49 10° SE
